Time,TemperatureF,DewpointF,PressureIn,WindDirection,WindDirectionDegrees,WindSpeedMPH,WindSpeedGustMPH,Humidity,HourlyPrecipIn,Conditions,Clouds,dailyrainin,SolarRadiationWatts/m^2,SoftwareType,DateUTC
2013-05-20 08:03:00,57.7,52.3,29.91,WNW,292,4.6,4.6,82,0.00,RA,,0.00,89.4,WeatherDisplay:10.37,2013-05-20 06:03:00,
2013-05-20 08:04:00,57.7,52.3,29.91,WSW,248,4.6,4.6,82,0.00,RA,,0.00,89.4,WeatherDisplay:10.37,2013-05-20 06:04:00,
2013-05-20 08:09:00,58.1,52.6,29.91,WSW,248,4.6,4.6,82,0.00,RA,,0.00,92.2,WeatherDisplay:10.37,2013-05-20 06:09:00,
2013-05-20 08:14:00,58.3,52.5,29.91,SW,225,5.8,5.8,81,0.00,OVC,,0.00,95.0,WeatherDisplay:10.37,2013-05-20 06:14:00,
2013-05-20 08:19:00,58.6,52.8,29.91,SSW,202,6.9,6.9,81,0.00,OVC,,0.00,97.8,WeatherDisplay:10.37,2013-05-20 06:19:00,
2013-05-20 08:24:00,59.0,52.5,29.91,WNW,292,5.8,5.8,79,0.00,OVC,,0.00,100.7,WeatherDisplay:10.37,2013-05-20 06:24:00,
2013-05-20 08:29:00,59.2,52.7,29.91,West,270,5.4,5.4,79,0.00,OVC,,0.00,103.5,WeatherDisplay:10.37,2013-05-20 06:29:00,
2013-05-20 08:34:00,59.4,52.5,29.91,WSW,248,8.1,8.1,78,0.00,OVC,,0.00,106.3,WeatherDisplay:10.37,2013-05-20 06:34:00,
2013-05-20 08:39:00,59.7,52.5,29.91,West,270,4.6,4.6,77,0.00,OVC,,0.00,109.1,WeatherDisplay:10.37,2013-05-20 06:39:00,
2013-05-20 08:44:00,60.1,53.2,29.91,West,270,3.5,3.5,78,0.00,OVC,,0.00,111.7,WeatherDisplay:10.37,2013-05-20 06:44:00,
2013-05-20 08:49:00,60.4,53.2,29.91,WNW,292,8.1,8.1,77,0.00,OVC,,0.00,114.5,WeatherDisplay:10.37,2013-05-20 06:49:00,
2013-05-20 08:54:00,60.8,52.8,29.91,SSW,202,6.0,6.0,75,0.00,OVC,,0.00,117.2,WeatherDisplay:10.37,2013-05-20 06:54:00,
2013-05-20 08:59:00,60.6,51.9,29.91,SW,225,5.8,5.8,73,0.00,OVC,,0.00,119.8,WeatherDisplay:10.37,2013-05-20 06:59:00,
2013-05-20 09:04:00,60.6,52.3,29.91,WSW,248,7.8,7.8,74,0.00,OVC,,0.00,122.4,WeatherDisplay:10.37,2013-05-20 07:04:00,
2013-05-20 09:09:00,60.8,52.1,29.91,WSW,248,4.6,4.6,73,0.00,OVC,,0.00,125.1,WeatherDisplay:10.37,2013-05-20 07:09:00,
2013-05-20 09:14:00,61.2,52.8,29.91,WNW,292,4.6,4.6,74,0.00,OVC,,0.00,128.2,WeatherDisplay:10.37,2013-05-20 07:14:00,
2013-05-20 09:19:00,61.2,52.1,29.91,WSW,248,6.0,6.0,72,0.00,OVC,,0.00,130.8,WeatherDisplay:10.37,2013-05-20 07:19:00,
2013-05-20 09:24:00,61.3,51.9,29.91,NNW,338,6.9,6.9,71,0.00,OVC,,0.00,133.3,WeatherDisplay:10.37,2013-05-20 07:24:00,
2013-05-20 09:29:00,61.3,52.2,29.91,WNW,292,5.8,5.8,72,0.00,OVC,,0.00,135.3,WeatherDisplay:10.37,2013-05-20 07:29:00,
2013-05-20 09:34:00,61.5,52.8,29.94,WNW,292,5.8,5.8,73,0.00,OVC,,0.00,137.8,WeatherDisplay:10.37,2013-05-20 07:34:00,
2013-05-20 09:39:00,61.9,53.5,29.94,SW,225,3.6,3.6,74,0.00,OVC,,0.00,140.3,WeatherDisplay:10.37,2013-05-20 07:39:00,
2013-05-20 09:44:00,62.2,53.5,29.94,WNW,292,8.1,8.1,73,0.00,OVC,,0.00,142.7,WeatherDisplay:10.37,2013-05-20 07:44:00,
2013-05-20 09:49:00,62.2,52.7,29.94,SSW,202,4.6,4.6,71,0.00,OVC,,0.00,145.0,WeatherDisplay:10.37,2013-05-20 07:49:00,
2013-05-20 09:54:00,62.1,52.2,29.94,WNW,292,4.0,4.0,70,0.00,OVC,,0.00,147.3,WeatherDisplay:10.37,2013-05-20 07:54:00,
2013-05-20 09:59:00,62.4,52.1,29.94,WNW,292,5.8,5.8,69,0.00,OVC,,0.00,149.7,WeatherDisplay:10.37,2013-05-20 07:59:00,
2013-05-20 10:04:00,62.6,52.7,29.94,WNW,292,4.6,4.6,70,0.00,OVC,,0.00,152.0,WeatherDisplay:10.37,2013-05-20 08:04:00,
2013-05-20 10:09:00,62.6,53.1,29.94,NW,315,4.7,4.7,71,0.00,OVC,,0.00,154.1,WeatherDisplay:10.37,2013-05-20 08:09:00,
2013-05-20 10:14:00,63.0,53.0,29.94,NNW,338,5.8,5.8,70,0.00,OVC,,0.00,156.3,WeatherDisplay:10.37,2013-05-20 08:14:00,
2013-05-20 10:19:00,63.0,53.0,29.94,West,270,3.5,3.5,70,0.00,OVC,,0.00,158.9,WeatherDisplay:10.37,2013-05-20 08:19:00,
2013-05-20 10:24:00,63.1,52.8,29.94,West,270,4.6,4.6,69,0.00,OVC,,0.00,160.9,WeatherDisplay:10.37,2013-05-20 08:24:00,
2013-05-20 10:29:00,63.0,52.6,29.94,West,270,8.1,8.1,69,0.00,OVC,,0.00,162.9,WeatherDisplay:10.37,2013-05-20 08:29:00,
2013-05-20 10:34:00,63.1,52.4,29.97,WSW,248,3.8,3.8,68,0.00,OVC,,0.00,164.8,WeatherDisplay:10.37,2013-05-20 08:34:00,
2013-05-20 10:39:00,63.3,53.4,29.97,West,270,3.5,3.5,70,0.00,OVC,,0.00,166.3,WeatherDisplay:10.37,2013-05-20 08:39:00,
2013-05-20 10:44:00,63.7,52.9,29.97,SSW,202,5.8,5.8,68,0.00,OVC,,0.00,168.1,WeatherDisplay:10.37,2013-05-20 08:44:00,
2013-05-20 10:49:00,64.4,53.2,29.94,WSW,248,8.1,8.1,67,0.00,OVC,,0.00,169.9,WeatherDisplay:10.37,2013-05-20 08:49:00,
2013-05-20 10:54:00,64.6,52.1,29.94,SSW,202,5.8,5.8,64,0.00,OVC,,0.00,171.9,WeatherDisplay:10.37,2013-05-20 08:54:00,
2013-05-20 10:59:00,64.8,53.5,29.94,WNW,292,5.8,5.8,67,0.00,OVC,,0.00,173.4,WeatherDisplay:10.37,2013-05-20 08:59:00,
2013-05-20 11:04:00,64.8,53.5,29.97,West,270,6.4,6.4,67,0.00,OVC,,0.00,174.9,WeatherDisplay:10.37,2013-05-20 09:04:00,
2013-05-20 11:09:00,64.8,53.1,29.97,WNW,292,5.9,5.9,66,0.00,OVC,,0.00,176.6,WeatherDisplay:10.37,2013-05-20 09:09:00,
2013-05-20 11:14:00,64.6,53.4,29.97,SSW,202,5.8,5.8,67,0.00,OVC,,0.00,178.0,WeatherDisplay:10.37,2013-05-20 09:14:00,
2013-05-20 11:19:00,64.6,53.8,29.97,WSW,248,4.6,4.6,68,0.00,OVC,,0.00,179.4,WeatherDisplay:10.37,2013-05-20 09:19:00,
2013-05-20 11:24:00,64.4,53.2,29.97,WNW,292,5.8,5.8,67,0.00,OVC,,0.00,180.8,WeatherDisplay:10.37,2013-05-20 09:24:00,
2013-05-20 11:29:00,64.8,53.5,29.97,SSW,202,4.6,4.6,67,0.00,OVC,,0.00,182.3,WeatherDisplay:10.37,2013-05-20 09:29:00,
2013-05-20 11:34:00,64.8,52.7,29.91,WSW,248,3.5,3.5,65,0.00,OVC,,0.00,183.5,WeatherDisplay:10.37,2013-05-20 09:34:00,
2013-05-20 11:39:00,64.8,52.7,29.91,WNW,292,4.6,4.6,65,0.00,OVC,,0.00,184.5,WeatherDisplay:10.37,2013-05-20 09:39:00,
2013-05-20 11:44:00,65.1,52.6,29.91,WNW,292,6.9,6.9,64,0.00,OVC,,0.00,185.6,WeatherDisplay:10.37,2013-05-20 09:44:00,
2013-05-20 11:49:00,65.3,52.8,29.91,SW,225,4.6,4.6,64,0.00,OVC,,0.00,186.6,WeatherDisplay:10.37,2013-05-20 09:49:00,
2013-05-20 11:54:00,65.5,51.2,29.91,WSW,248,4.0,4.0,60,0.00,OVC,,0.00,187.4,WeatherDisplay:10.37,2013-05-20 09:54:00,
2013-05-20 11:59:00,65.1,50.0,29.91,WSW,248,5.8,5.8,58,0.00,OVC,,0.00,188.6,WeatherDisplay:10.37,2013-05-20 09:59:00,
2013-05-20 12:04:00,65.5,52.5,29.91,SSW,202,4.6,4.6,63,0.00,OVC,,0.00,189.3,WeatherDisplay:10.37,2013-05-20 10:04:00,
2013-05-20 12:09:00,65.5,49.4,29.91,WSW,248,6.2,6.2,56,0.00,OVC,,0.00,190.1,WeatherDisplay:10.37,2013-05-20 10:09:00,
2013-05-20 12:14:00,65.1,48.5,29.91,WNW,292,6.9,6.9,55,0.00,OVC,,0.00,190.7,WeatherDisplay:10.37,2013-05-20 10:14:00,
2013-05-20 12:19:00,65.7,50.9,29.91,SW,225,9.2,9.2,59,0.00,OVC,,0.00,191.4,WeatherDisplay:10.37,2013-05-20 10:19:00,
2013-05-20 12:24:00,65.8,52.0,29.91,WSW,248,5.9,5.9,61,0.00,OVC,,0.00,191.9,WeatherDisplay:10.37,2013-05-20 10:24:00,
2013-05-20 12:29:00,65.7,50.9,29.91,WSW,248,5.6,5.6,59,0.00,OVC,,0.00,192.2,WeatherDisplay:10.37,2013-05-20 10:29:00,
2013-05-20 12:34:00,65.8,51.6,29.91,WSW,248,5.8,5.8,60,0.00,OVC,,0.00,192.7,WeatherDisplay:10.37,2013-05-20 10:34:00,
2013-05-20 12:39:00,65.7,50.9,29.91,WNW,292,3.5,3.5,59,0.00,OVC,,0.00,192.9,WeatherDisplay:10.37,2013-05-20 10:39:00,
2013-05-20 12:44:00,65.8,50.2,29.91,WSW,248,5.8,5.8,57,0.00,OVC,,0.00,193.1,WeatherDisplay:10.37,2013-05-20 10:44:00,
2013-05-20 12:49:00,65.7,50.5,29.91,SSW,202,4.6,4.6,58,0.00,OVC,,0.00,193.2,WeatherDisplay:10.37,2013-05-20 10:49:00,
2013-05-20 12:54:00,65.7,51.8,29.91,WNW,292,4.6,4.6,61,0.00,OVC,,0.00,193.4,WeatherDisplay:10.37,2013-05-20 10:54:00,
2013-05-20 12:59:00,65.7,51.4,29.91,NW,315,4.6,4.6,60,0.00,OVC,,0.00,193.4,WeatherDisplay:10.37,2013-05-20 10:59:00,
2013-05-20 13:04:00,65.5,49.8,29.91,WSW,248,4.6,4.6,57,0.00,OVC,,0.00,193.4,WeatherDisplay:10.37,2013-05-20 11:04:00,
2013-05-20 13:09:00,65.5,49.8,29.91,SSW,202,3.5,3.5,57,0.00,OVC,,0.00,193.2,WeatherDisplay:10.37,2013-05-20 11:09:00,
2013-05-20 13:14:00,65.7,50.9,29.91,SSW,202,4.6,4.6,59,0.00,OVC,,0.00,192.9,WeatherDisplay:10.37,2013-05-20 11:14:00,
2013-05-20 13:19:00,66.2,51.0,29.91,West,270,6.9,6.9,58,0.00,OVC,,0.00,192.7,WeatherDisplay:10.37,2013-05-20 11:19:00,
2013-05-20 13:24:00,67.3,51.5,29.91,SSE,158,2.6,2.6,57,0.00,OVC,,0.00,192.2,WeatherDisplay:10.37,2013-05-20 11:24:00,
2013-05-20 13:29:00,67.5,50.2,29.91,SSW,202,5.8,5.8,54,0.00,OVC,,0.00,191.9,WeatherDisplay:10.37,2013-05-20 11:29:00,
2013-05-20 13:34:00,67.1,50.9,29.91,SSW,202,4.6,4.6,56,0.00,OVC,,0.00,191.4,WeatherDisplay:10.37,2013-05-20 11:34:00,
2013-05-20 13:39:00,66.7,51.0,29.91,West,270,5.8,5.8,57,0.00,OVC,,0.00,190.7,WeatherDisplay:10.37,2013-05-20 11:39:00,
2013-05-20 13:44:00,66.6,50.8,29.91,NNW,338,3.6,3.6,57,0.00,OVC,,0.00,190.1,WeatherDisplay:10.37,2013-05-20 11:44:00,
2013-05-20 13:49:00,66.4,50.7,29.91,NNE,22,3.6,3.6,57,0.00,OVC,,0.00,189.3,WeatherDisplay:10.37,2013-05-20 11:49:00,
2013-05-20 13:54:00,66.6,49.9,29.91,WNW,292,4.6,4.6,55,0.00,OVC,,0.00,188.4,WeatherDisplay:10.37,2013-05-20 11:54:00,
2013-05-20 13:59:00,66.7,50.5,29.91,NNW,338,6.0,6.0,56,0.00,OVC,,0.00,187.6,WeatherDisplay:10.37,2013-05-20 11:59:00,
2013-05-20 14:04:00,66.9,51.2,29.97,NW,315,3.6,3.6,57,0.00,OVC,,0.00,186.6,WeatherDisplay:10.37,2013-05-20 12:04:00,
2013-05-20 14:09:00,66.9,49.7,29.97,NNW,338,5.8,5.8,54,0.00,OVC,,0.00,185.8,WeatherDisplay:10.37,2013-05-20 12:09:00,
2013-05-20 14:14:00,66.9,51.2,29.97,NNW,338,5.4,5.4,57,0.00,OVC,,0.00,184.8,WeatherDisplay:10.37,2013-05-20 12:14:00,
2013-05-20 14:19:00,66.6,49.9,29.94,NNW,338,5.8,5.8,55,0.00,OVC,,0.00,183.6,WeatherDisplay:10.37,2013-05-20 12:19:00,
2013-05-20 14:24:00,66.2,48.6,29.94,NNE,22,3.5,3.5,53,0.00,OVC,,0.00,182.3,WeatherDisplay:10.37,2013-05-20 12:24:00,
2013-05-20 14:29:00,66.2,50.5,29.94,NW,315,3.5,3.5,57,0.00,OVC,,0.00,180.8,WeatherDisplay:10.37,2013-05-20 12:29:00,
2013-05-20 14:34:00,66.6,51.3,29.97,NNW,338,5.8,5.8,58,0.00,OVC,,0.00,179.7,WeatherDisplay:10.37,2013-05-20 12:34:00,
2013-05-20 14:39:00,67.6,51.9,29.97,NNE,22,3.6,3.6,57,0.00,OVC,,0.00,178.4,WeatherDisplay:10.37,2013-05-20 12:39:00,
2013-05-20 14:44:00,68.7,52.4,29.97,ENE,68,3.5,3.5,56,0.00,OVC,,0.00,176.9,WeatherDisplay:10.37,2013-05-20 12:44:00,
2013-05-20 14:49:00,69.6,52.2,29.94,WSW,248,3.5,3.5,54,0.00,OVC,,0.00,175.1,WeatherDisplay:10.37,2013-05-20 12:49:00,
2013-05-20 14:54:00,69.3,50.4,29.94,SSE,158,5.4,5.4,51,0.00,OVC,,0.00,173.4,WeatherDisplay:10.37,2013-05-20 12:54:00,
2013-05-20 14:59:00,68.7,49.3,29.94,WSW,248,6.9,6.9,50,0.00,OVC,,0.00,171.8,WeatherDisplay:10.37,2013-05-20 12:59:00,
2013-05-20 15:04:00,68.7,50.9,29.94,WNW,292,8.1,8.1,53,0.00,OVC,,0.00,170.1,WeatherDisplay:10.37,2013-05-20 13:04:00,
2013-05-20 15:09:00,69.3,47.6,29.94,West,270,8.1,8.1,46,0.00,OVC,,0.00,168.3,WeatherDisplay:10.37,2013-05-20 13:09:00,
2013-05-20 15:14:00,69.8,50.9,29.94,NNW,338,9.2,9.2,51,0.00,OVC,,0.00,166.5,WeatherDisplay:10.37,2013-05-20 13:14:00,
2013-05-20 15:19:00,70.0,50.5,29.94,WNW,292,4.6,4.6,50,0.00,OVC,,0.00,164.5,WeatherDisplay:10.37,2013-05-20 13:19:00,
2013-05-20 15:24:00,69.6,50.7,29.94,West,270,3.5,3.5,51,0.00,OVC,,0.00,162.5,WeatherDisplay:10.37,2013-05-20 13:24:00,
2013-05-20 15:29:00,69.4,50.5,29.94,NW,315,5.9,5.9,51,0.00,OVC,,0.00,160.5,WeatherDisplay:10.37,2013-05-20 13:29:00,
2013-05-20 15:34:00,68.9,49.5,29.94,WSW,248,5.8,5.8,50,0.00,OVC,,0.00,158.6,WeatherDisplay:10.37,2013-05-20 13:34:00,
2013-05-20 15:39:00,68.0,48.7,29.94,WSW,248,6.0,6.0,50,0.00,OVC,,0.00,156.4,WeatherDisplay:10.37,2013-05-20 13:39:00,
2013-05-20 15:44:00,66.9,47.1,29.94,WNW,292,11.5,11.5,49,0.00,OVC,,0.00,154.3,WeatherDisplay:10.37,2013-05-20 13:44:00,
2013-05-20 15:49:00,67.1,48.4,29.97,NW,315,5.8,5.8,51,0.00,OVC,,0.00,152.0,WeatherDisplay:10.37,2013-05-20 13:49:00,
2013-05-20 15:54:00,67.5,48.7,29.97,WNW,292,5.8,5.8,51,0.00,OVC,,0.00,149.8,WeatherDisplay:10.37,2013-05-20 13:54:00,
2013-05-20 15:59:00,68.2,49.4,29.97,NNW,338,4.6,4.6,51,0.00,OVC,,0.00,147.5,WeatherDisplay:10.37,2013-05-20 13:59:00,
2013-05-20 16:04:00,68.9,48.9,29.94,West,270,8.1,8.1,49,0.00,OVC,,0.00,145.2,WeatherDisplay:10.37,2013-05-20 14:04:00,
2013-05-20 16:09:00,69.3,47.6,29.94,WNW,292,4.6,4.6,46,0.00,OVC,,0.00,142.9,WeatherDisplay:10.37,2013-05-20 14:09:00,
2013-05-20 16:14:00,69.8,49.2,29.94,WSW,248,3.5,3.5,48,0.00,OVC,,0.00,140.4,WeatherDisplay:10.37,2013-05-20 14:14:00,
2013-05-20 16:19:00,70.0,47.7,29.94,WNW,292,4.6,4.6,45,0.00,OVC,,0.00,137.9,WeatherDisplay:10.37,2013-05-20 14:19:00,
2013-05-20 16:24:00,71.2,49.4,29.94,West,270,4.6,4.6,46,0.00,OVC,,0.00,135.5,WeatherDisplay:10.37,2013-05-20 14:24:00,
2013-05-20 16:29:00,71.2,48.2,29.94,WNW,292,4.6,4.6,44,0.00,OVC,,0.00,133.0,WeatherDisplay:10.37,2013-05-20 14:29:00,
2013-05-20 16:34:00,71.6,49.7,29.94,SSW,202,9.2,9.2,46,0.00,OVC,,0.00,130.5,WeatherDisplay:10.37,2013-05-20 14:34:00,
2013-05-20 16:39:00,71.8,48.1,29.94,NW,315,5.8,5.8,43,0.00,OVC,,0.00,127.9,WeatherDisplay:10.37,2013-05-20 14:39:00,
2013-05-20 16:44:00,71.2,45.7,29.94,SSW,202,9.2,9.2,40,0.00,OVC,,0.00,125.2,WeatherDisplay:10.37,2013-05-20 14:44:00,
2013-05-20 16:49:00,71.2,47.6,29.94,West,270,6.9,6.9,43,0.00,OVC,,0.00,122.6,WeatherDisplay:10.37,2013-05-20 14:49:00,
2013-05-20 16:54:00,71.6,47.3,29.94,South,180,4.6,4.6,42,0.00,OVC,,0.00,120.0,WeatherDisplay:10.37,2013-05-20 14:54:00,
2013-05-20 16:59:00,71.2,45.7,29.94,WSW,248,6.9,6.9,40,0.00,OVC,,0.00,117.3,WeatherDisplay:10.37,2013-05-20 14:59:00,
2013-05-20 17:04:00,71.6,47.9,29.91,WNW,292,5.4,5.4,43,0.00,OVC,,0.00,114.7,WeatherDisplay:10.37,2013-05-20 15:04:00,
2013-05-20 17:09:00,71.6,47.3,29.91,WNW,292,5.8,5.8,42,0.00,OVC,,0.00,111.9,WeatherDisplay:10.37,2013-05-20 15:09:00,
2013-05-20 17:14:00,71.8,48.1,29.91,WSW,248,3.5,3.5,43,0.00,OVC,,0.00,109.2,WeatherDisplay:10.37,2013-05-20 15:14:00,
2013-05-20 17:19:00,71.2,47.6,29.91,West,270,8.1,8.1,43,0.00,OVC,,0.00,106.4,WeatherDisplay:10.37,2013-05-20 15:19:00,
2013-05-20 17:24:00,70.7,47.7,29.91,West,270,5.8,5.8,44,0.00,OVC,,0.00,103.6,WeatherDisplay:10.37,2013-05-20 15:24:00,
2013-05-20 17:29:00,70.2,46.6,29.91,NNW,338,5.8,5.8,43,0.00,OVC,,0.00,100.8,WeatherDisplay:10.37,2013-05-20 15:29:00,
2013-05-20 17:34:00,69.8,46.9,29.91,WSW,248,4.6,4.6,44,0.00,OVC,,0.00,98.0,WeatherDisplay:10.37,2013-05-20 15:34:00,
2013-05-20 17:39:00,69.1,46.2,29.91,WSW,248,5.8,5.8,44,0.00,OVC,,0.00,95.2,WeatherDisplay:10.37,2013-05-20 15:39:00,
2013-05-20 17:44:00,68.5,46.3,29.91,WNW,292,5.8,5.8,45,0.00,OVC,,0.00,92.4,WeatherDisplay:10.37,2013-05-20 15:44:00,
2013-05-20 17:49:00,68.2,46.0,29.91,WSW,248,4.6,4.6,45,0.00,OVC,,0.00,89.6,WeatherDisplay:10.37,2013-05-20 15:49:00,
2013-05-20 17:54:00,67.6,46.1,29.91,WNW,292,6.9,6.9,46,0.00,OVC,,0.00,86.8,WeatherDisplay:10.37,2013-05-20 15:54:00,
2013-05-20 17:59:00,67.3,45.2,29.91,WNW,292,4.6,4.6,45,0.00,OVC,,0.00,84.0,WeatherDisplay:10.37,2013-05-20 15:59:00,
2013-05-20 18:04:00,66.9,44.9,29.91,WNW,292,4.6,4.6,45,0.00,OVC,,0.00,81.2,WeatherDisplay:10.37,2013-05-20 16:04:00,
2013-05-20 18:09:00,66.7,45.3,29.91,WNW,292,6.2,6.2,46,0.00,OVC,,0.00,78.4,WeatherDisplay:10.37,2013-05-20 16:09:00,
2013-05-20 18:14:00,66.4,45.0,29.91,WNW,292,7.4,7.4,46,0.00,OVC,,0.00,75.6,WeatherDisplay:10.37,2013-05-20 16:14:00,
2013-05-20 18:19:00,66.2,44.8,29.91,WSW,248,5.8,5.8,46,0.00,OVC,,0.00,72.8,WeatherDisplay:10.37,2013-05-20 16:19:00,
2013-05-20 18:24:00,66.0,45.2,29.91,NW,315,5.8,5.8,47,0.00,OVC,,0.00,70.0,WeatherDisplay:10.37,2013-05-20 16:24:00,
2013-05-20 18:29:00,65.8,46.1,29.91,WSW,248,4.6,4.6,49,0.00,OVC,,0.00,67.2,WeatherDisplay:10.37,2013-05-20 16:29:00,
2013-05-20 18:34:00,65.8,46.7,29.91,WSW,248,4.6,4.6,50,0.00,OVC,,0.00,64.3,WeatherDisplay:10.37,2013-05-20 16:34:00,
2013-05-20 18:39:00,65.7,46.5,29.91,WNW,292,5.9,5.9,50,0.00,OVC,,0.00,61.5,WeatherDisplay:10.37,2013-05-20 16:39:00,
2013-05-20 18:44:00,65.5,46.9,29.91,NNW,338,3.5,3.5,51,0.00,OVC,,0.00,58.7,WeatherDisplay:10.37,2013-05-20 16:44:00,
2013-05-20 18:49:00,65.3,46.2,29.94,NW,315,5.8,5.8,50,0.00,OVC,,0.00,55.9,WeatherDisplay:10.37,2013-05-20 16:49:00,
2013-05-20 18:54:00,65.3,46.2,29.94,WNW,292,2.3,2.3,50,0.00,OVC,,0.00,53.3,WeatherDisplay:10.37,2013-05-20 16:54:00,
2013-05-20 18:59:00,65.1,46.0,29.94,WNW,292,3.5,3.5,50,0.00,OVC,,0.00,50.5,WeatherDisplay:10.37,2013-05-20 16:59:00,
2013-05-20 19:04:00,64.9,45.8,29.94,WNW,292,2.3,2.3,50,0.00,OVC,,0.00,47.9,WeatherDisplay:10.37,2013-05-20 17:04:00,
2013-05-20 19:09:00,64.8,46.7,29.94,WNW,292,2.3,2.3,52,0.00,OVC,,0.00,45.0,WeatherDisplay:10.37,2013-05-20 17:09:00,
2013-05-20 19:14:00,64.6,46.6,29.94,WNW,292,2.6,2.6,52,0.00,OVC,,0.00,42.4,WeatherDisplay:10.37,2013-05-20 17:14:00,
2013-05-20 19:19:00,64.4,45.9,29.94,NW,315,2.3,2.3,51,0.00,OVC,,0.00,39.8,WeatherDisplay:10.37,2013-05-20 17:19:00,
2013-05-20 19:24:00,64.2,46.2,29.94,NNW,338,2.3,0.0,52,0.00,OVC,,0.00,37.1,WeatherDisplay:10.37,2013-05-20 17:24:00,
2013-05-20 19:29:00,64.0,46.6,29.94,WNW,292,2.3,2.3,53,0.00,OVC,,0.00,34.5,WeatherDisplay:10.37,2013-05-20 17:29:00,
2013-05-20 19:34:00,63.9,46.9,29.91,NNW,338,0.0,0.0,54,0.00,OVC,,0.00,31.8,WeatherDisplay:10.37,2013-05-20 17:34:00,
2013-05-20 19:39:00,63.5,46.6,29.91,WNW,292,1.2,1.2,54,0.00,OVC,,0.00,29.4,WeatherDisplay:10.37,2013-05-20 17:39:00,
2013-05-20 19:44:00,63.1,46.7,29.91,NNW,338,2.3,2.3,55,0.00,OVC,,0.00,26.7,WeatherDisplay:10.37,2013-05-20 17:44:00,
2013-05-20 19:49:00,62.8,45.9,29.91,NNW,338,2.3,2.3,54,0.00,OVC,,0.00,24.3,WeatherDisplay:10.37,2013-05-20 17:49:00,
2013-05-20 19:54:00,62.2,46.3,29.91,NNW,338,2.3,2.3,56,0.00,OVC,,0.00,21.8,WeatherDisplay:10.37,2013-05-20 17:54:00,
2013-05-20 19:59:00,61.9,46.0,29.91,NNW,338,1.4,0.0,56,0.00,OVC,,0.00,19.3,WeatherDisplay:10.37,2013-05-20 17:59:00,
2013-05-20 20:04:00,61.7,46.8,29.94,NNW,338,1.2,0.0,58,0.00,OVC,,0.00,16.8,WeatherDisplay:10.37,2013-05-20 18:04:00,
2013-05-20 20:09:00,61.3,46.9,29.94,NNW,338,0.0,0.0,59,0.00,OVC,,0.00,14.5,WeatherDisplay:10.37,2013-05-20 18:09:00,
2013-05-20 20:14:00,61.0,47.0,29.94,NNW,338,0.0,0.0,60,0.00,OVC,,0.00,12.0,WeatherDisplay:10.37,2013-05-20 18:14:00,
2013-05-20 20:19:00,60.6,46.7,29.97,NNW,338,0.0,0.0,60,0.00,OVC,,0.00,9.7,WeatherDisplay:10.37,2013-05-20 18:19:00,
2013-05-20 20:24:00,60.1,47.0,29.97,NNW,338,0.0,0.0,62,0.00,OVC,,0.00,7.4,WeatherDisplay:10.37,2013-05-20 18:24:00,
2013-05-20 20:29:00,59.7,47.1,29.97,NNW,338,0.0,0.0,63,0.00,OVC,,0.00,5.1,WeatherDisplay:10.37,2013-05-20 18:29:00,
2013-05-20 20:34:00,59.4,47.2,29.94,NNW,338,0.0,0.0,64,0.00,OVC,,0.00,3.0,WeatherDisplay:10.37,2013-05-20 18:34:00,
2013-05-20 20:39:00,59.0,47.7,29.94,NNW,338,0.0,0.0,66,0.00,OVC,,0.00,0.7,WeatherDisplay:10.37,2013-05-20 18:39:00,
2013-05-20 20:44:00,58.8,47.5,29.94,ENE,68,0.0,0.0,66,0.00,OVC,,0.00,0.7,WeatherDisplay:10.37,2013-05-20 18:44:00,
2013-05-20 20:49:00,58.3,47.0,29.91,ENE,68,0.0,0.0,66,0.00,OVC,,0.00,0.7,WeatherDisplay:10.37,2013-05-20 18:49:00,
2013-05-20 20:54:00,57.9,46.6,29.91,NNE,22,1.2,0.0,66,0.00,CLR,,0.00,0.0,WeatherDisplay:10.37,2013-05-20 18:54:00,
2013-05-20 20:59:00,57.7,46.9,29.91,NNE,22,0.0,0.0,67,0.00,CLR,,0.00,0.0,WeatherDisplay:10.37,2013-05-20 18:59:00,
2013-05-20 21:04:00,57.4,46.5,29.91,NNE,22,0.0,0.0,67,0.00,CLR,,0.00,0.0,WeatherDisplay:10.37,2013-05-20 19:04:00,
2013-05-20 21:09:00,57.2,46.7,29.91,NNE,22,0.0,0.0,68,0.00,CLR,,0.00,0.0,WeatherDisplay:10.37,2013-05-20 19:09:00,
2013-05-20 21:14:00,56.8,46.4,29.91,NNE,22,0.0,0.0,68,0.00,CLR,,0.00,0.0,WeatherDisplay:10.37,2013-05-20 19:14:00,
2013-05-20 21:19:00,56.7,46.6,29.94,NNE,22,0.0,0.0,69,0.00,CLR,,0.00,0.0,WeatherDisplay:10.37,2013-05-20 19:19:00,
2013-05-20 21:24:00,56.5,47.2,29.94,NNE,22,0.0,0.0,71,0.00,CLR,,0.00,0.0,WeatherDisplay:10.37,2013-05-20 19:24:00,
2013-05-20 21:29:00,56.3,47.0,29.94,NNE,22,0.0,0.0,71,0.00,CLR,,0.00,0.0,WeatherDisplay:10.37,2013-05-20 19:29:00,
2013-05-20 21:34:00,56.1,46.8,29.97,NNE,22,0.0,0.0,71,0.00,CLR,,0.00,0.0,WeatherDisplay:10.37,2013-05-20 19:34:00,
2013-05-20 21:39:00,55.9,46.7,29.97,NNE,22,0.0,0.0,71,0.00,CLR,,0.00,0.0,WeatherDisplay:10.37,2013-05-20 19:39:00,
2013-05-20 21:44:00,55.8,46.5,29.97,NNE,22,0.0,0.0,71,0.00,CLR,,0.00,0.0,WeatherDisplay:10.37,2013-05-20 19:44:00,
2013-05-20 21:49:00,55.6,46.3,29.94,NNE,22,0.0,0.0,71,0.00,CLR,,0.00,0.0,WeatherDisplay:10.37,2013-05-20 19:49:00,
2013-05-20 21:54:00,55.4,46.5,29.94,NNE,22,0.0,0.0,72,0.00,CLR,,0.00,0.0,WeatherDisplay:10.37,2013-05-20 19:54:00,
2013-05-20 21:59:00,55.2,46.7,29.94,NNE,22,0.0,0.0,73,0.00,CLR,,0.00,0.0,WeatherDisplay:10.37,2013-05-20 19:59:00,
2013-05-20 22:04:00,55.0,46.5,29.94,NNE,22,0.0,0.0,73,0.00,CLR,,0.00,0.0,WeatherDisplay:10.37,2013-05-20 20:04:00,
2013-05-20 22:09:00,54.9,46.4,29.94,NNE,22,0.0,0.0,73,0.00,CLR,,0.00,0.0,WeatherDisplay:10.37,2013-05-20 20:09:00,
2013-05-20 22:14:00,54.7,46.2,29.94,NNE,22,0.0,0.0,73,0.00,CLR,,0.00,0.0,WeatherDisplay:10.37,2013-05-20 20:14:00,
2013-05-20 22:19:00,54.7,46.6,29.97,NNE,22,0.0,0.0,74,0.00,CLR,,0.00,0.0,WeatherDisplay:10.37,2013-05-20 20:19:00,
2013-05-20 22:24:00,54.5,46.4,29.97,NNE,22,0.0,0.0,74,0.00,CLR,,0.00,0.0,WeatherDisplay:10.37,2013-05-20 20:24:00,
2013-05-20 22:29:00,54.5,46.4,29.97,NNE,22,0.0,0.0,74,0.00,CLR,,0.00,0.0,WeatherDisplay:10.37,2013-05-20 20:29:00,
2013-05-20 22:34:00,54.3,46.2,29.97,NNE,22,0.0,0.0,74,0.00,CLR,,0.00,0.0,WeatherDisplay:10.37,2013-05-20 20:34:00,
2013-05-20 22:39:00,54.1,46.0,29.97,NNE,22,0.0,0.0,74,0.00,CLR,,0.00,0.0,WeatherDisplay:10.37,2013-05-20 20:39:00,
2013-05-20 22:44:00,54.1,46.4,29.97,NNE,22,0.0,0.0,75,0.00,CLR,,0.00,0.0,WeatherDisplay:10.37,2013-05-20 20:44:00,
2013-05-20 22:49:00,54.0,46.2,29.97,NNE,22,0.0,0.0,75,0.00,CLR,,0.00,0.0,WeatherDisplay:10.37,2013-05-20 20:49:00,
2013-05-20 22:54:00,53.8,46.0,29.97,NNE,22,0.0,0.0,75,0.00,CLR,,0.00,0.0,WeatherDisplay:10.37,2013-05-20 20:54:00,
2013-05-20 22:59:00,53.8,46.4,29.97,NNE,22,0.0,0.0,76,0.00,CLR,,0.00,0.0,WeatherDisplay:10.37,2013-05-20 20:59:00,
2013-05-20 23:04:00,53.6,46.2,29.94,NNE,22,0.0,0.0,76,0.00,CLR,,0.00,0.0,WeatherDisplay:10.37,2013-05-20 21:04:00,
2013-05-20 23:09:00,53.6,46.2,29.94,NNE,22,0.0,0.0,76,0.00,CLR,,0.00,0.0,WeatherDisplay:10.37,2013-05-20 21:09:00,
2013-05-20 23:14:00,53.4,46.0,29.94,NNE,22,0.0,0.0,76,0.00,CLR,,0.00,0.0,WeatherDisplay:10.37,2013-05-20 21:14:00,
2013-05-20 23:19:00,53.4,46.4,29.97,NNE,22,0.0,0.0,77,0.00,CLR,,0.00,0.0,WeatherDisplay:10.37,2013-05-20 21:19:00,
2013-05-20 23:24:00,53.4,46.7,29.97,NNE,22,0.0,0.0,78,0.00,CLR,,0.00,0.0,WeatherDisplay:10.37,2013-05-20 21:24:00,
2013-05-20 23:29:00,53.4,46.7,29.97,NNE,22,0.0,0.0,78,0.00,CLR,,0.00,0.0,WeatherDisplay:10.37,2013-05-20 21:29:00,
2013-05-20 23:34:00,53.4,47.1,29.97,NNE,22,0.0,0.0,79,0.00,CLR,,0.00,0.0,WeatherDisplay:10.37,2013-05-20 21:34:00,
2013-05-20 23:39:00,53.4,47.4,29.97,NNE,22,0.0,0.0,80,0.00,CLR,,0.00,0.0,WeatherDisplay:10.37,2013-05-20 21:39:00,
2013-05-20 23:45:00,53.6,47.6,29.97,NNE,22,0.0,0.0,80,0.00,CLR,,0.00,0.0,WeatherDisplay:10.37,2013-05-20 21:45:00,
2013-05-20 23:50:00,53.6,47.6,29.94,North,0,0.0,0.0,80,0.00,CLR,,0.00,0.0,WeatherDisplay:10.37,2013-05-20 21:50:00,
2013-05-20 23:55:00,53.8,47.8,29.94,WNW,292,0.0,0.0,80,0.00,CLR,,0.00,0.0,WeatherDisplay:10.37,2013-05-20 21:55:00,